Regional Weather Roundup
Issued by NWS

Home | Current Version | Previous Version | Graphics & Text | Print | Product List | Glossary On
Versions: 1 2 3 4 5 6 7 8 9 10 11 12 13 14 15 16 17 18 19 20 21 22 23 24 25 26 27 28 29 30 31 32 33 34 35 36 37 38 39 40 41 42 43 44 45 46 47 48 49 50
394
ASUS45 KCYS 100810
RWRWY

WYOMING REGIONAL WEATHER ROUNDUP
NATIONAL WEATHER SERVICE CHEYENNE WY
100 AM MST SUN DEC 10 2017

NOTE:  "FAIR" INDICATES FEW OR NO CLOUDS BELOW 12,000 FEET
WITH NO SIGNIFICANT WEATHER AND/OR OBSTRUCTIONS TO VISIBILITY.

WYZ001-100900-
YELLOWSTONE NATIONAL PARK

CITY           SKY/WX    TMP DP  RH WIND       PRES   REMARKS
LK YELLOWSTONE   N/A      3   0  87 CALM      30.61S
W YELLOWSTONE  NOT AVBL

$$
WYZ002>013-054>058-071-098>099-100900-
NORTHERN WYOMING

CITY           SKY/WX    TMP DP  RH WIND       PRES   REMARKS
JACKSON        FAIR       8   4  83 NE5       30.63S WCI   0
CODY           FAIR      38   2  22 SW7       30.41S WCI  33
GREYBULL       FAIR      11   8  88 CALM      30.45R
WORLAND        FAIR      14  11  87 CALM      30.43S
SHERIDAN       FAIR      28  12  51 SW3       30.34F
BUFFALO        FAIR      33   3  28 W7        30.36F WCI  27
GILLETTE       FAIR      35  12  38 W13       30.33S WCI  26
HULETT         FAIR      36  12  38 SW14      30.31R WCI  27
NEWCASTLE      FAIR      28  12  50 N10       30.33S WCI  19

$$
WYZ014>020-022>026-101>103-100900-
CENTRAL WYOMING

CITY           SKY/WX    TMP DP  RH WIND       PRES   REMARKS
BIG PINEY      FAIR      27   4  37 N14       30.53S WCI  16
PINEDALE       FAIR      25   1  36 NW13      30.52S WCI  13
DUBOIS         FAIR      36  -6  17 W24       30.47S WCI  24
LANDER         FAIR      23  15  71 NW6       30.44R WCI  16
RIVERTON       FAIR      19  11  70 CALM      30.45S
CASPER         FAIR      32  15  49 SW16      30.42S WCI  21
DOUGLAS        FAIR      22  15  75 NW3       30.40R

$$
WYZ021-027>030-104>119-100900-
SOUTHERN WYOMING

CITY           SKY/WX    TMP DP  RH WIND       PRES   REMARKS
EVANSTON       FAIR      25   8  48 S8        30.57F WCI  16
ROCK SPRINGS   FAIR      28   8  43 SW12      30.52S WCI  18
DIXON          FAIR      18  10  70 CALM      30.59R
RAWLINS        FAIR      15   7  70 CALM      30.50F
SARATOGA       FAIR      16   7  67 W7        30.52S WCI   6
LARAMIE        FAIR      19   4  51 SE6       30.45S WCI  11
CHEYENNE       FAIR      36   0  21 NW15      30.38F WCI  27
TORRINGTON     FAIR      35  13  40 NW10      30.36S WCI  27
PINE BLUFFS    FAIR      32   3  29 MISG      30.37F

$$




USA.gov is the U.S. government's official web portal to all federal, state and local government web resources and services.